Home   Weather   Rainy River   Past weeks

Flag for Canada Past Weather in Rainy River, Ontario, Canada — Yesterday and Last 2 Weeks

Now
71 °F

Sunny.


Feels Like: 75 °F
Forecast: 63 / 81 °F
Wind: 8 mph from South

Location: Baudette International Airport

Current Time: Jul 24, 2017 at 9:51:00 pm

Latest Report: Jul 24, 2017 at 8:53 pm


Visibility: 10 mi

Pressure: 29.92 "Hg

Humidity: 66%

Dew Point: 59 °F

Location of Rainy RiverLocation

Past Weather in Rainy River — Graph

°F

Rainy River Temperature Yesterday

Maximum temperature yesterday: 79 °F (at 4:53 pm)
Minimum temperature yesterday: 57 °F (at 3:30 am)
Average temperature yesterday: 66 °F

High & Low Weather Summary for the Past Weeks

 TemperatureHumidityPressure
High83 °F (Jul 17, 11:53 am)100% (Jul 11, 9:53 am)30.22 "Hg (Jul 11, 9:53 am)
Low45 °F (Jul 14, 5:53 am)36% (Jul 18, 1:53 pm)29.67 "Hg (Jul 12, 12:53 am)
Average65 °F77%29.95 "Hg
* Reported Jul 9 7:53 pm — Jul 24 7:53 pm, Rainy River. Weather by CustomWeather, © 2017

Note: Actual official high and low records may vary slightly from our data, if they occured in-between our weather recording intervals... More about our weather records

Advertising

Rainy River Weather History for the Previous 24 Hours

Scroll right to see more
 ConditionsComfort  
Time TempWeatherWind HumidityBarometerVisibility
7:53 pm
Mon, Jul 24
75 °FSunny.10 mph58%29.93 "Hg10 mi
6:53 pm78 °FSunny.10 mph52%29.93 "Hg10 mi
5:53 pm79 °FSunny.14 mph48%29.93 "Hg10 mi
4:53 pm80 °FSunny.12 mph45%29.94 "Hg10 mi
3:53 pm80 °FSunny.12 mph45%29.94 "Hg10 mi
2:53 pm79 °FSunny.13 mph48%29.95 "Hg10 mi
1:53 pm78 °FPassing clouds.12 mph48%29.97 "Hg10 mi
12:53 pm78 °FPassing clouds.10 mph52%29.98 "Hg10 mi
11:53 am75 °FPartly sunny.10 mph60%29.99 "Hg10 mi
10:53 am74 °FPassing clouds.13 mph62%30.01 "Hg10 mi
9:53 am72 °FSunny.13 mph66%30.02 "Hg10 mi
8:53 am68 °FSunny.10 mph82%30.04 "Hg10 mi
7:53 am63 °FSunny.7 mph93%30.03 "Hg10 mi
6:53 am59 °FSunny.6 mph96%30.01 "Hg10 mi
5:53 am57 °FSunny.7 mph96%30.00 "Hg10 mi
4:53 am57 °FClear.5 mph96%29.99 "Hg10 mi
3:53 am58 °FPassing clouds.3 mph93%29.99 "Hg10 mi
2:53 am59 °FPassing clouds.6 mph90%30.00 "Hg10 mi
1:53 am59 °FClear.5 mph90%30.01 "Hg10 mi
12:53 am59 °FClear.No wind93%30.00 "Hg10 mi
11:53 pm
Sun, Jul 23
61 °FClear.6 mph90%30.00 "Hg10 mi
10:53 pm63 °FClear.3 mph87%30.00 "Hg10 mi
9:53 pm65 °FClear.No wind94%29.99 "Hg10 mi
Weather by CustomWeather, © 2017

See weather overviewHow to use our weather pages